Regional Weather Roundup
Issued by NWS Bismarck, ND

Home | Current Version | Previous Version | Text Only | Print | Product List | Glossary On
Versions: 1 2 3 4 5 6 7 8 9 10 11 12 13 14 15 16 17 18 19 20 21 22 23 24 25 26 27 28 29 30 31 32 33 34 35 36 37 38 39 40 41 42 43 44 45 46 47 48 49 50
803
ASUS43 KBIS 110710
RWRBIS

NWR BROADCAST TEXT
NATIONAL WEATHER SERVICE BISMARCK ND
100 AM CST THU FEB 11 2016

NOTE: "FAIR" INDICATES FEW OR NO CLOUDS BELOW 12,000 FEET WITH NO
SIGNIFICANT WEATHER AND/OR OBSTRUCTIONS TO VISIBILITY.


CITY           SKY/WX    TMP DP  RH WIND       PRES   REMARKS
WILLISTON      CLOUDY    26  21  81 SE3       30.14R
MINOT          CLOUDY    14   6  70 S6        30.17F WCI   5
MINOT AFB      NOT AVBL
BISMARCK       CLOUDY    17  11  77 SE6       30.19F WCI   9
DICKINSON      CLOUDY    24  22  91 E5        30.08F WCI  18
GARRISON         N/A     13   9  84 SE5       30.16F WCI   5
HETTINGER ARPT CLOUDY    27  23  85 S8        30.11F WCI  19
JAMESTOWN      CLOUDY     4  -1  80 SE3       30.22F
BEACH          CLOUDY    30  28  93 CALM      30.11F
CARRINGTON     CLOUDY     9   7  92 S7        30.22F WCI  -3
HAZEN          CLOUDY    14   9  79 CALM      30.20S
LINTON         CLOUDY    14  14 100 SE6       30.21R WCI   5
MANDAN         CLOUDY    14  10  85 SE6       30.17F WCI   5
OAKES          CLOUDY     9   3  78 E5        30.24F WCI   0
RUGBY          CLOUDY     7   3  85 SE3       30.21R
STANLEY        CLOUDY    14  14 100 S5        30.15S WCI   6
TIOGA          CLOUDY    18  18 100 S8        30.18R WCI   7
WATFORD CITY   CLOUDY    25  21  86 E3        30.14R
$$

CITY           SKY/WX    TMP DP  RH WIND       PRES   REMARKS
GRAND FORKS    CLOUDY     1  -4  79 CALM      30.30F
GRAND FORKS AF CLOUDY    -3  -8  79 SW3       30.29S
DEVILS LAKE    CLOUDY    -1  -4  87 SE6       30.23  WCI -13
FARGO          CLOUDY     5  -2  72 N3        30.29F
CAVALIER       FAIR      -2  -4  92 CALM      30.29F
GRAFTON        FAIR       0  -4  85 CALM      30.31F
GWINNER        CLOUDY     9   3  78 N3        30.27S
LANGDON        FAIR      -9 -15  77 SW9       30.21S WCI -27
ROLLA          PTSUNNY    0  -4  85 SW6       30.18F WCI -12
WALHALLA         N/A     -4  -4 100 CALM      30.27F
$$

CITY           SKY/WX    TMP DP  RH WIND       PRES   REMARKS
ABERDEEN       CLOUDY    13   7  77 E6        30.24F WCI   4
MOBRIDGE       CLOUDY    18  14  84 E9        30.17R WCI   7
BUFFALO          N/A     32  28  85 S6        30.03F
RAPID CITY     CLOUDY    29  27  92 S5        30.13S
GLASGOW        CLOUDY    30  26  85 SE10      30.06F
SIDNEY         CLOUDY    30  25  80 CALM      30.13S
WOLF POINT     CLOUDY    32  26  78 NE7       30.10F
GLENDIVE       CLOUDY    30  27  86 NE3       30.10F
MILES CITY     CLOUDY    32  29  88 SE8       30.06F
BAKER          CLOUDY    31  26  82 SE7       30.08F
$$

CITY           SKY/WX    TMP DP  RH WIND       PRES   REMARKS
BILLINGS       CLOUDY    50  21  32 SW12      30.04F
GREAT FALLS    CLOUDY    49  26  41 SW14      30.03S
REGINA         CLOUDY    16  12  86 N5        30.17S WCI   9
ESTEVAN        CLOUDY    16  10  79 SE6       30.15F WCI   7
$$





USA.gov is the U.S. government's official web portal to all federal, state and local government web resources and services.